User: anonymous   Login
Location: Unspecified
(0.0000°N, 0.0000°E)
Time: 05:57:20
(UTC+00:00)
Language:

TET - Orbit

View from above orbital plane
View from above orbital plane
View from above satellite
View from above satellite

Ground track
Ground track

The orbit data is extracted from the following two-line orbital elements,

1 38710U 12039D   22176.81773829  .00047218  00000-0  36741-3 0  9993
2 38710  97.5094 258.1026 0001626 122.5463 237.5957 15.71622392558720
Epoch (UTC): 25 June 2022 19:37:32
Eccentricity: 0.0001626
inclination: 97.5094°
perigee height: 353 km
apogee height: 355 km
right ascension of ascending node: 258.1026°
argument of perigee: 122.5463°
revolutions per day: 15.71622392
mean anomaly at epoch: 237.5957°
orbit number at epoch: 55872

The dashed part of the orbit path shows where the satellite is in the earth's shadow,  

DLR